Tracking 28126 objects as of 1-Oct-2023
HD Live streaming from Space Station
objects crossing your sky now

STARLINK-2611

Track STARLINK-2611 now!
10-day predictions
STARLINK-2611 is classified as:


NORAD ID: 48364
Int'l Code: 2021-038M
Perigee: 553.5 km
Apogee: 555.2 km
Inclination: 53.1 °
Period: 95.6 minutes
Semi major axis: 6925 km
RCS: Unknown
Launch date: May 4, 2021
Source: United States (US)
Launch site: AIR FORCE EASTERN TEST RANGE (AFETR)
Your satellite tracking list
Your tracking list is empty




NASA's NSSDC Master Catalog

Two Line Element Set (TLE):
1 48364U 21038M   23273.63832663  .00007983  00000-0  55412-3 0  9990
2 48364  53.0567  36.7021 0001265  95.2630 264.8503 15.06405491133382
Source of the keplerian elements: AFSPC